Location: Unspecified
(41.9031°N, 12.4386°E)
Time: 16:53:17
(UTC+02:00)

ISS - Pass Details

Date: 01 June 2020
Orbit: 417 x 420 km, 51.6° (Epoch: 25 May)

Event Time Altitude Azimuth Distance (km) Brightness Sun altitude
Rises 21:35:54 0° 305° (NW) 2,365 2.3 -9.3°
Reaches altitude 10° 21:38:00 10° 306° (NW) 1,499 0.7 -9.6°
Maximum altitude 21:41:22 83° 35° (NE) 425 -3.8 -10.1°
Enters shadow 21:43:59 16° 122° (ESE) 1,193 -2.1 -10.4°
